This is the latest recevied weather packets stored in our database for station/object K4GSL. If no packets are shown the sender has not sent any weather packets the latest 10 day(s).
| Time | Temp. | Humidity | Pressure | Rain* | Wind** | Luminosity | Snow |
|---|---|---|---|---|---|---|---|
| 1778016306 | 16.67° C | 77% | 1020.1 hPa | 0 mm | - | 190 W/m² | - |
| 1778016003 | 17.22° C | 75% | 1020.4 hPa | 0 mm | - | 191 W/m² | - |
| 1778015701 | 17.22° C | 75% | 1020.2 hPa | 0 mm | - | 211 W/m² | - |
| 1778015396 | 17.22° C | 76% | 1020.2 hPa | 0 mm | - | 207 W/m² | - |
| 1778015094 | 17.78° C | 75% | 1020.3 hPa | 0 mm | - | 219 W/m² | - |
| 1778014790 | 17.22° C | 76% | 1020.2 hPa | 0 mm | - | 220 W/m² | - |
| 1778014489 | 16.67° C | 77% | 1020.3 hPa | 0 mm | - | 224 W/m² | - |
| 1778014185 | 17.22° C | 76% | 1020.4 hPa | 0 mm | - | 220 W/m² | - |
| 1778013884 | 17.22° C | 76% | 1020.1 hPa | 0 mm | - | 200 W/m² | - |
| 1778013580 | 16.67° C | 78% | 1020.3 hPa | 0 mm | - | 203 W/m² | - |
| 1778013277 | 16.67° C | 77% | 1020.3 hPa | 0 mm | - | 217 W/m² | - |
| 1778012973 | 16.11° C | 77% | 1020.3 hPa | 0 mm | - | 222 W/m² | - |
| 1778012670 | 16.67° C | 76% | 1020.3 hPa | 0 mm | - | 210 W/m² | - |
| 1778012366 | 16.67° C | 76% | 1020.4 hPa | 0 mm | - | 252 W/m² | - |
| 1778012063 | 16.67° C | 77% | 1020.4 hPa | 0 mm | - | 251 W/m² | - |
| 1778011761 | 16.67° C | 77% | 1020.5 hPa | 0 mm | - | 238 W/m² | - |
| 1778011458 | 16.67° C | 77% | 1020.5 hPa | 0 mm | - | 240 W/m² | - |
| 1778011153 | 17.22° C | 76% | 1020.4 hPa | 0 mm | - | 238 W/m² | - |
| 1778010851 | 16.67° C | 77% | 1020.4 hPa | 0 mm | - | 264 W/m² | - |
| 1778010548 | 17.22° C | 75% | 1020.8 hPa | 0 mm | - | 277 W/m² | - |
| 1778010246 | 16.67° C | 78% | 1020.4 hPa | 0 mm | - | 267 W/m² | - |
| 1778009946 | 16.67° C | 78% | 1020.9 hPa | 0 mm | - | 269 W/m² | - |
| 1778009644 | 16.11° C | 79% | 1020.6 hPa | 0 mm | - | 253 W/m² | - |
| 1778009341 | 16.11° C | 79% | 1020.6 hPa | 0 mm | - | 237 W/m² | - |
| 1778009039 | 16.11° C | 79% | 1020.8 hPa | 0 mm | - | 229 W/m² | - |
* Rain latest hour (hover to see other rain measurements)
** Current wind speed in m/s (hover to see current wind gust speed)